Tracking 27422 objects as of 31-May-2023
HD Live streaming from Space Station
objects crossing your sky now

STARLINK-4441

Track STARLINK-4441 now!
10-day predictions
STARLINK-4441 is classified as:


NORAD ID: 53510
Int'l Code: 2022-099AX
Perigee: 569.2 km
Apogee: 571.1 km
Inclination: 97.7 °
Period: 95.9 minutes
Semi major axis: 6941 km
RCS: Unknown
Launch date: August 12, 2022
Source: United States (US)
Launch site: AIR FORCE WESTERN TEST RANGE (AFWTR)
Your satellite tracking list
Your tracking list is empty




NASA's NSSDC Master Catalog

Two Line Element Set (TLE):
1 53510U 22099AX  23150.34708445  .00000482  00000-0  42150-4 0  9992
2 53510  97.6564 271.6915 0001322 102.4540 257.6832 15.01261695 44049
Source of the keplerian elements: AFSPC